Location: Tamazert
(32.6352°N, 5.2072°W)
Time: 12:36:24
(UTC+00:00)

Tiros 1 despin weight - All Passes

Search period start: 05 October 2022 00:00
Search period end: 15 October 2022 00:00
Orbit: 590 x 638 km, 48.2° (Epoch: 04 October)

Date Brightness Start Highest point End Pass type
(mag) Time Alt. Az. Time Alt. Az. Time Alt. Az.
05 Oct - 13:57:58 10° SSW 14:02:13 50° SE 14:06:32 10° ENE daylight
05 Oct - 15:40:01 10° W 15:43:50 28° NNW 15:47:45 10° NNE daylight
05 Oct - 17:24:49 10° NNW 17:26:32 12° N 17:28:15 10° NNE daylight
05 Oct - 19:07:24 10° NNW 19:09:39 13° NNE 19:11:53 10° NE visible
05 Oct - 20:47:53 10° NW 20:52:09 37° NNE 20:56:28 10° E visible
05 Oct - 22:29:22 10° WNW 22:33:37 36° SW 22:37:52 10° SSE night (unlit)
06 Oct - 12:34:17 10° SSE 12:36:32 14° SE 12:38:47 10° E daylight
06 Oct - 14:13:06 10° SW 14:17:30 77° NW 14:21:59 10° NE daylight
06 Oct - 15:56:25 10° WNW 15:59:33 18° NNW 16:02:42 10° NNE daylight
06 Oct - 17:41:21 10° NNW 17:42:31 11° N 17:43:41 10° NNE daylight
06 Oct - 19:22:23 10° NNW 19:25:30 18° NNE 19:28:39 10° ENE visible
06 Oct - 21:03:02 10° NW 21:07:37 69° NE 21:12:14 10° ESE visible
06 Oct - 22:45:42 10° W 22:48:43 17° SW 22:51:44 10° S night (unlit)
07 Oct - 12:47:45 10° SSW 12:51:35 30° SE 12:55:28 10° ENE daylight
07 Oct - 14:28:47 10° WSW 14:32:56 39° NNW 14:37:09 10° NE daylight
07 Oct - 16:13:08 10° NW 16:15:23 13° NNW 16:17:38 10° NNE daylight
07 Oct - 17:56:53 10° NNW 17:58:29 12° N 18:00:06 10° NNE daylight
07 Oct - 19:37:21 10° NNW 19:41:13 26° NNE 19:45:07 10° E visible
07 Oct - 21:18:24 10° WNW 21:22:56 59° SW 21:27:29 10° SE visible
08 Oct - 13:02:25 10° SW 13:06:46 66° SE 13:11:10 10° NE daylight
08 Oct - 14:44:56 10° W 14:48:32 24° NNW 14:52:10 10° NNE daylight
08 Oct - 16:29:57 10° NNW 16:31:19 11° N 16:32:40 10° NNE daylight
08 Oct - 18:11:54 10° NNW 18:14:24 14° NNE 18:16:55 10° NE daylight
08 Oct - 19:52:22 10° NW 19:56:46 45° NE 20:01:11 10° ESE visible
08 Oct - 21:34:10 10° WNW 21:38:06 28° SW 21:42:02 10° S visible
09 Oct - 11:37:59 10° S 11:40:59 18° SE 11:44:00 10° E daylight
09 Oct - 13:17:44 10° WSW 13:22:05 60° NW 13:26:29 10° NE daylight
09 Oct - 15:01:28 10° WNW 15:04:16 16° NNW 15:07:05 10° NNE daylight
09 Oct - 16:46:10 10° NNW 16:47:17 11° N 16:48:23 10° NNE daylight
09 Oct - 18:26:49 10° NNW 18:30:11 20° NNE 18:33:34 10° ENE visible
09 Oct - 20:07:34 10° NW 20:12:09 86° NE 20:16:47 10° SE visible
09 Oct - 21:51:02 10° W 21:53:08 13° SW 21:55:15 10° SSW night (unlit)
10 Oct - 11:51:59 10° SSW 11:56:04 39° SE 12:00:11 10° ENE daylight
10 Oct - 13:33:34 10° W 13:37:32 32° NNW 13:41:34 10° NE daylight
10 Oct - 15:18:15 10° NW 15:20:07 12° N 15:21:59 10° NNE daylight
10 Oct - 17:01:23 10° NNW 17:03:13 12° N 17:05:04 10° NE daylight
10 Oct - 18:41:46 10° NNW 18:45:49 31° NNE 18:49:54 10° E visible
10 Oct - 20:23:01 10° WNW 20:27:23 45° SW 20:31:48 10° SSE visible
11 Oct - 10:29:42 10° SE 10:30:23 10° SE 10:31:05 10° ESE daylight
11 Oct - 12:06:53 10° SW 12:11:16 85° SE 12:15:42 10° NE daylight
11 Oct - 13:49:50 10° WNW 13:53:09 20° NNW 13:56:31 10° NNE daylight
11 Oct - 15:34:58 10° NNW 15:36:02 11° N 15:37:05 10° N daylight
11 Oct - 17:16:18 10° NNW 17:19:04 16° NNE 17:21:51 10° NE daylight
11 Oct - 18:56:50 10° NW 19:01:17 55° NE 19:05:48 10° ESE visible
11 Oct - 20:39:00 10° W 20:42:29 22° SW 20:46:01 10° S visible
12 Oct - 10:41:53 10° S 10:45:23 23° SE 10:48:54 10° ENE daylight
12 Oct - 12:22:22 10° WSW 12:26:36 47° NW 12:30:54 10° NE daylight
12 Oct - 14:06:27 10° NW 14:08:54 14° NNW 14:11:23 10° NNE daylight
12 Oct - 15:50:46 10° N 15:51:58 11° N 15:53:11 10° NNE daylight
12 Oct - 17:31:11 10° NNW 17:34:47 23° NNE 17:38:24 10° ENE daylight
12 Oct - 19:12:04 10° NW 19:16:36 75° SW 19:21:11 10° SE visible
13 Oct - 10:56:14 10° SSW 11:00:29 51° SE 11:04:46 10° ENE daylight
13 Oct - 12:38:20 10° W 12:42:06 27° NNW 12:45:54 10° NNE daylight
13 Oct - 14:23:17 10° NNW 14:24:47 11° N 14:26:16 10° NNE daylight
13 Oct - 16:05:45 10° NNW 16:07:52 13° NNE 16:09:59 10° NE daylight
13 Oct - 17:46:08 10° NW 17:50:20 37° NNE 17:54:34 10° E daylight
13 Oct - 19:27:38 10° WNW 19:31:46 35° SW 19:35:57 10° SSE visible
14 Oct - 09:32:26 10° SSE 09:34:44 14° SE 09:37:00 10° E daylight
14 Oct - 11:11:20 10° SW 11:15:42 75° NW 11:20:07 10° NE daylight
14 Oct - 12:54:43 10° WNW 12:57:45 18° NNW 13:00:47 10° NNE daylight
14 Oct - 14:39:50 10° NNW 14:40:41 10° N 14:41:32 10° N daylight
14 Oct - 16:20:37 10° NNW 16:23:39 17° NNE 16:26:43 10° ENE daylight
14 Oct - 18:01:13 10° NW 18:05:44 69° NE 18:10:17 10° ESE daylight
14 Oct - 19:43:56 10° W 19:46:48 17° SW 19:49:42 10° S visible
